Total_Precipitation_Accumulation
0.00 0.00 0.00 0.00 0.00 0.00 0.00 0.00 0.00 0.00 0.00 0.00 0.00 0.00 0.00 0.00 0.00 0.00 0.00 0.00 0.00 0.00 0.00 0.00 0.00 0.00 0.00 0.00 0.00 0.00 0.00 0.04 0.04 0.12 0.22 0.06 0.04 0.07 0.02 0.03 0.04 0.13 0.09 0.10 0.06 0.08 0.06 0.06 0.05 0.10 0.00 0.02 0.01 0.00 0.00 0.00 0.00 0.00 0.00 0.00 0.00 0.00 0.00 0.00 0.00 0.00 0.00 0.00 0.00 0.00 0.01 0.01 0.02 0.02 0.02 0.04 0.04 0.02 0.01 0.02 0.03 0.06 0.04 0.03 0.03 0.06 0.01 0.01 0.01 0.00 0.00 0.00 0.01 0.01 0.01 0.01 0.01
0.00 0.00 0.00 0.00 0.00 0.00 0.00 0.00 0.00 0.00 0.00 0.00 0.00 0.00 0.00 0.00 0.00 0.00 0.00 0.00 0.00 0.00 0.00 0.00 0.00 0.00 0.00 0.00 0.00 0.00 0.00 0.01 0.00 0.03 0.09 0.11 0.06 0.05 0.08 0.04 0.04 0.17 0.13 0.12 0.09 0.08 0.08 0.12 0.05 0.04 0.06 0.02 0.02 0.00 0.00 0.00 0.00 0.00 0.00 0.00 0.00 0.00 0.01 0.00 0.00 0.00 0.00 0.00 0.01 0.01 0.01 0.03 0.02 0.03 0.03 0.04 0.01 0.01 0.01 0.02 0.06 0.11 0.04 0.07 0.05 0.05 0.01 0.01 0.00 0.01 0.01 0.01 0.01 0.01 0.01 0.01 0.02
0.00 0.00 0.00 0.00 0.00 0.00 0.00 0.00 0.00 0.00 0.00 0.00 0.00 0.00 0.00 0.00 0.00 0.00 0.00 0.00 0.00 0.00 0.00 0.00 0.00 0.00 0.00 0.00 0.00 0.08 0.25 0.04 0.01 0.04 0.11 0.12 0.09 0.28 0.13 0.11 0.07 0.12 0.16 0.22 0.10 0.06 0.11 0.12 0.06 0.05 0.06 0.05 0.02 0.01 0.00 0.00 0.00 0.00 0.01 0.00 0.00 0.00 0.00 0.00 0.00 0.00 0.00 0.01 0.01 0.02 0.02 0.03 0.04 0.05 0.05 0.02 0.03 0.01 0.03 0.01 0.05 0.09 0.03 0.04 0.03 0.01 0.01 0.01 0.01 0.01 0.01 0.02 0.01 0.00 0.01 0.01 0.01
0.00 0.00 0.00 0.00 0.00 0.00 0.00 0.00 0.00 0.00 0.00 0.00 0.00 0.00 0.00 0.00 0.00 0.00 0.00 0.00 0.00 0.00 0.00 0.00 0.00 0.00 0.00 0.00 0.03 0.00 0.04 0.04 0.04 0.03 0.15 0.11 0.14 0.12 0.14 0.10 0.09 0.18 0.39 0.19 0.17 0.10 0.12 0.10 0.08 0.04 0.10 0.07 0.02 0.02 0.01 0.01 0.01 0.00 0.01 0.00 0.00 0.00 0.00 0.01 0.01 0.00 0.01 0.01 0.02 0.03 0.05 0.08 0.08 0.07 0.04 0.02 0.02 0.08 0.02 0.01 0.13 0.12 0.08 0.04 0.03 0.02 0.01 0.01 0.01 0.02 0.01 0.00 0.00 0.01 0.01 0.02 0.03
0.00 0.00 0.00 0.00 0.00 0.00 0.00 0.00 0.00 0.00 0.00 0.00 0.00 0.00 0.00 0.00 0.00 0.00 0.00 0.00 0.00 0.00 0.00 0.00 0.00 0.00 0.00 0.02 0.00 0.07 0.04 0.04 0.06 0.04 0.03 0.07 0.03 0.15 0.11 0.13 0.15 0.41 0.27 0.35 0.15 0.15 0.12 0.09 0.08 0.08 0.12 0.11 0.03 0.04 0.03 0.01 0.01 0.02 0.01 0.00 0.00 0.00 0.00 0.00 0.00 0.00 0.01 0.02 0.04 0.05 0.05 0.06 0.07 0.06 0.10 0.05 0.01 0.04 0.08 0.01 0.04 0.05 0.04 0.01 0.01 0.01 0.01 0.02 0.01 0.01 0.01 0.01 0.01 0.02 0.04 0.05 0.05
0.00 0.00 0.00 0.00 0.00 0.00 0.00 0.00 0.00 0.00 0.00 0.00 0.00 0.00 0.00 0.00 0.00 0.00 0.00 0.00 0.00 0.00 0.00 0.00 0.01 0.00 0.02 0.06 0.08 0.08 0.10 0.17 0.03 0.03 0.06 0.14 0.07 0.10 0.15 0.38 0.64 0.34 0.26 0.19 0.18 0.16 0.17 0.09 0.04 0.13 0.19 0.14 0.13 0.08 0.07 0.05 0.05 0.05 0.01 0.00 0.01 0.00 0.01 0.01 0.00 0.01 0.03 0.03 0.04 0.06 0.04 0.04 0.08 0.11 0.12 0.10 0.04 0.03 0.02 0.01 0.02 0.02 0.04 0.06 0.04 0.02 0.02 0.01 0.01 0.01 0.01 0.01 0.06 0.04 0.02 0.03 0.02
0.00 0.00 0.00 0.00 0.00 0.00 0.00 0.00 0.00 0.00 0.00 0.00 0.00 0.00 0.00 0.00 0.00 0.00 0.00 0.00 0.00 0.00 0.00 0.00 0.00 0.00 0.04 0.03 0.03 0.09 0.04 0.04 0.04 0.07 0.05 0.09 0.11 0.13 0.17 0.57 0.61 0.33 0.22 0.17 0.15 0.19 0.15 0.05 0.03 0.05 0.14 0.18 0.30 0.23 0.17 0.08 0.07 0.06 0.10 0.08 0.04 0.02 0.01 0.01 0.01 0.03 0.04 0.03 0.05 0.06 0.05 0.11 0.10 0.10 0.07 0.11 0.07 0.06 0.02 0.01 0.01 0.03 0.05 0.06 0.06 0.05 0.02 0.02 0.01 0.02 0.02 0.03 0.05 0.02 0.02 0.02 0.01
0.00 0.00 0.00 0.00 0.00 0.00 0.00 0.00 0.00 0.00 0.00 0.00 0.00 0.00 0.00 0.00 0.00 0.00 0.00 0.00 0.00 0.00 0.00 0.00 0.00 0.00 0.85 0.02 0.24 0.05 0.06 0.06 0.05 0.04 0.02 0.07 0.11 0.36 0.56 0.66 0.37 0.34 0.25 0.19 0.21 0.15 0.23 0.03 0.04 0.03 0.07 0.08 0.11 0.11 0.21 0.21 0.19 0.12 0.09 0.09 0.11 0.11 0.04 0.02 0.02 0.06 0.03 0.04 0.09 0.05 0.04 0.06 0.18 0.13 0.13 0.15 0.21 0.05 0.15 0.06 0.04 0.02 0.02 0.03 0.02 0.03 0.03 0.02 0.02 0.01 0.04 0.04 0.00 0.00 0.01 0.00 0.00
0.00 0.00 0.00 0.00 0.00 0.00 0.00 0.00 0.00 0.00 0.00 0.00 0.00 0.00 0.00 0.00 0.00 0.00 0.00 0.00 0.00 0.00 0.00 0.00 0.00 0.11 0.13 0.11 0.13 0.12 0.07 0.12 0.04 0.04 0.06 0.10 0.25 0.48 0.68 0.50 0.40 0.28 0.19 0.33 0.26 0.22 0.10 0.06 0.03 0.02 0.03 0.03 0.05 0.14 0.14 0.09 0.16 0.10 0.09 0.09 0.08 0.05 0.05 0.09 0.06 0.05 0.05 0.10 0.05 0.06 0.04 0.03 0.09 0.08 0.11 0.17 0.10 0.06 0.10 0.11 0.05 0.06 0.06 0.04 0.05 0.02 0.02 0.02 0.08 0.03 0.02 0.03 0.02 0.00 0.00 0.00 0.00
0.00 0.00 0.00 0.00 0.00 0.00 0.00 0.00 0.00 0.00 0.00 0.00 0.00 0.00 0.00 0.00 0.00 0.00 0.00 0.00 0.00 0.00 0.00 0.00 0.00 0.05 0.08 0.42 0.16 0.21 0.35 0.10 0.11 0.09 0.27 0.38 0.26 0.45 1.03 1.03 0.66 0.44 0.41 0.29 0.28 0.19 0.12 0.31 0.01 0.02 0.02 0.03 0.05 0.09 0.07 0.07 0.04 0.08 0.06 0.07 0.08 0.01 0.03 0.06 0.08 0.06 0.05 0.09 0.07 0.04 0.04 0.01 0.03 0.05 0.04 0.09 0.07 0.06 0.05 0.07 0.04 0.07 0.09 0.06 0.04 0.11 0.02 0.04 0.04 0.03 0.05 0.02 0.02 0.01 0.00 0.00 0.00
0.00 0.00 0.00 0.00 0.00 0.00 0.00 0.00 0.00 0.00 0.00 0.00 0.00 0.00 0.00 0.00 0.00 0.00 0.00 0.00 0.00 0.00 0.00 0.00 0.01 0.04 0.04 0.22 0.44 0.28 0.41 0.20 0.14 0.23 0.26 0.23 0.56 0.93 0.90 1.01 0.59 0.70 0.39 0.34 0.34 0.36 0.24 0.22 0.16 0.03 0.02 0.02 0.04 0.03 0.03 0.02 0.03 0.01 0.01 0.01 0.02 0.03 0.02 0.02 0.06 0.05 0.06 0.11 0.15 0.07 0.07 0.04 0.02 0.04 0.06 0.06 0.05 0.05 0.06 0.04 0.03 0.05 0.02 0.04 0.05 0.04 0.04 0.03 0.02 0.01 0.03 0.01 0.01 0.00 0.00 0.00 0.00
0.00 0.00 0.00 0.00 0.00 0.00 0.00 0.00 0.00 0.00 0.00 0.00 0.00 0.00 0.00 0.00 0.00 0.00 0.00 0.00 0.00 0.00 0.00 0.00 0.03 0.01 0.21 0.11 0.32 0.53 0.50 0.53 0.39 0.26 0.14 0.30 0.40 0.59 0.49 0.61 0.29 0.34 0.45 0.48 0.67 0.52 0.45 0.24 0.28 0.30 0.07 0.02 0.02 0.09 0.05 0.10 0.04 0.02 0.01 0.01 0.01 0.01 0.03 0.02 0.12 0.13 0.06 0.12 0.12 0.14 0.14 0.05 0.08 0.06 0.05 0.05 0.07 0.07 0.07 0.06 0.07 0.07 0.09 0.11 0.06 0.04 0.02 0.01 0.01 0.01 0.01 0.01 0.00 0.00 0.00 0.00 0.00
0.00 0.00 0.00 0.00 0.00 0.00 0.00 0.00 0.00 0.00 0.00 0.00 0.00 0.00 0.00 0.00 0.00 0.00 0.00 0.00 0.00 0.00 0.00 0.00 0.01 0.01 0.47 0.32 0.44 0.73 0.59 0.46 0.47 0.19 0.61 0.36 0.58 0.39 0.58 0.46 0.56 0.75 0.49 0.74 0.67 0.33 0.19 0.16 0.17 0.22 0.32 0.09 0.04 0.11 0.09 0.19 0.15 0.09 0.03 0.06 0.08 0.07 0.09 0.10 0.13 0.05 0.04 0.04 0.24 0.28 0.13 0.05 0.04 0.03 0.06 0.03 0.04 0.07 0.09 0.07 0.06 0.08 0.10 0.09 0.12 0.03 0.02 0.01 0.01 0.01 0.01 0.01 0.00 0.00 0.00 0.00 0.00
0.00 0.00 0.00 0.00 0.00 0.00 0.00 0.00 0.00 0.00 0.00 0.00 0.00 0.00 0.00 0.00 0.00 0.00 0.00 0.00 0.00 0.00 0.00 0.00 0.00 0.03 0.43 0.19 0.64 0.98 0.57 0.43 0.40 0.69 0.39 0.34 0.32 0.30 0.40 0.98 1.14 0.56 0.71 0.64 0.31 0.64 0.30 0.16 0.19 0.29 0.32 0.26 0.44 0.33 0.37 0.31 0.27 0.19 0.12 0.16 0.14 0.16 0.17 0.15 0.07 0.23 0.33 0.54 0.23 0.08 0.05 0.07 0.04 0.04 0.06 0.05 0.06 0.04 0.04 0.04 0.05 0.07 0.06 0.09 0.05 0.02 0.02 0.02 0.02 0.02 0.00 0.00 0.00 0.00 0.00 0.00 0.00
0.00 0.00 0.00 0.00 0.00 0.00 0.00 0.00 0.00 0.00 0.00 0.00 0.00 0.00 0.00 0.00 0.00 0.00 0.00 0.00 0.00 0.00 0.03 0.00 0.00 0.04 1.06 0.17 0.53 0.31 0.51 0.33 0.14 0.14 0.20 0.30 0.59 0.57 0.73 0.74 0.74 1.24 0.80 0.47 0.33 0.29 0.25 0.22 0.43 0.37 0.23 0.32 0.49 0.51 0.87 0.44 0.36 0.29 0.14 0.28 0.17 0.17 0.35 0.21 0.26 0.32 0.35 0.17 0.08 0.12 0.10 0.07 0.17 0.17 0.06 0.05 0.07 0.04 0.03 0.02 0.03 0.06 0.10 0.09 0.05 0.04 0.01 0.02 0.01 0.01 0.00 0.00 0.00 0.00 0.00 0.00 0.00
0.00 0.00 0.00 0.00 0.00 0.00 0.00 0.00 0.00 0.00 0.00 0.00 0.00 0.00 0.00 0.00 0.00 0.00 0.00 0.00 0.00 0.00 0.00 0.01 0.00 0.19 0.14 0.12 0.20 0.12 0.16 0.26 0.29 0.11 0.19 0.52 0.40 0.55 0.81 0.75 0.77 1.33 0.88 0.55 0.28 0.34 0.81 0.30 0.34 0.34 0.35 0.44 0.52 0.61 0.78 0.85 0.64 0.76 0.56 0.46 0.45 0.23 0.29 0.33 0.22 0.14 0.17 0.16 0.18 0.21 0.12 0.22 0.29 0.22 0.15 0.22 0.10 0.07 0.01 0.15 0.05 0.07 0.06 0.06 0.08 0.03 0.04 0.01 0.00 0.02 0.01 0.00 0.00 0.00 0.00 0.00 0.00
0.00 0.00 0.00 0.00 0.00 0.00 0.00 0.00 0.00 0.00 0.00 0.00 0.00 0.00 0.00 0.00 0.00 0.00 0.00 0.00 0.01 0.00 0.00 0.00 0.03 0.02 0.22 0.17 0.12 0.04 0.18 0.17 0.16 0.22 0.17 0.23 0.36 1.05 1.25 0.81 0.76 0.66 0.57 0.42 0.43 0.70 1.00 0.63 0.51 0.34 0.36 0.35 0.46 0.80 0.64 0.66 0.53 1.04 0.56 0.42 0.39 0.33 0.34 0.31 0.24 0.30 0.26 0.29 0.20 0.13 0.07 0.28 0.52 0.28 0.35 0.28 0.16 0.17 0.03 0.04 0.09 0.12 0.08 0.04 0.05 0.03 0.05 0.01 0.01 0.01 0.02 0.00 0.00 0.00 0.00 0.00 0.00
0.00 0.00 0.00 0.00 0.00 0.00 0.00 0.00 0.00 0.00 0.00 0.00 0.00 0.00 0.00 0.00 0.00 0.00 0.00 0.00 0.01 0.00 0.02 0.02 0.03 0.09 0.07 0.09 0.14 0.08 0.13 0.34 0.31 0.18 0.21 0.33 0.64 0.46 0.66 0.59 0.47 0.53 0.45 0.48 0.58 0.64 0.86 1.11 0.45 0.45 0.54 0.37 0.43 0.62 0.70 0.73 0.63 0.55 0.55 0.50 0.77 0.70 0.47 0.42 0.46 0.39 0.72 0.39 0.26 0.21 0.67 0.64 0.65 0.51 0.40 0.68 0.29 0.26 0.24 0.05 0.09 0.08 0.08 0.11 0.08 0.01 0.01 0.02 0.04 0.03 0.02 0.01 0.00 0.00 0.00 0.00 0.00
0.00 0.00 0.00 0.00 0.00 0.00 0.00 0.00 0.00 0.00 0.00 0.00 0.00 0.00 0.00 0.00 0.01 0.00 0.01 0.00 0.00 0.01 0.06 0.04 0.14 0.18 0.10 0.14 0.10 0.13 0.17 0.37 0.49 0.88 0.67 0.22 0.28 0.40 0.83 0.83 0.63 0.52 0.50 0.32 0.35 0.41 1.00 0.40 0.52 0.39 0.51 0.65 0.57 0.79 0.71 0.93 0.73 0.59 1.02 0.43 0.42 0.34 0.76 0.74 0.64 0.60 0.69 0.48 0.40 0.59 0.75 0.63 0.78 1.06 0.64 0.37 0.37 0.20 0.23 0.18 0.13 0.11 0.09 0.09 0.09 0.04 0.03 0.01 0.03 0.07 0.03 0.01 0.00 0.00 0.00 0.01 0.00
0.00 0.00 0.00 0.00 0.00 0.00 0.00 0.00 0.00 0.00 0.00 0.00 0.00 0.00 0.00 0.00 0.00 0.00 0.03 0.01 0.00 0.01 0.07 0.07 0.12 0.26 0.11 0.14 0.15 0.13 0.30 0.44 0.54 0.88 0.67 0.52 0.31 0.48 0.73 0.62 0.46 0.40 0.49 0.41 0.30 0.50 0.33 0.45 1.11 1.22 0.68 1.18 1.58 0.87 0.85 0.37 0.93 0.69 0.70 0.66 0.67 0.58 0.81 0.73 0.62 0.80 1.02 1.08 0.63 0.84 1.01 1.10 0.91 1.46 0.78 0.81 0.96 0.57 0.35 0.14 0.13 0.13 0.12 0.11 0.05 0.11 0.10 0.07 0.03 0.04 0.04 0.05 0.00 0.00 0.02 0.01 0.02
0.00 0.00 0.00 0.00 0.00 0.00 0.00 0.00 0.00 0.00 0.00 0.00 0.00 0.00 0.00 0.00 0.00 0.00 0.00 0.02 0.01 0.10 0.00 0.03 0.11 0.21 0.16 0.14 0.16 0.17 0.26 0.29 0.46 0.53 0.51 0.80 0.87 0.56 0.64 0.47 0.45 0.24 0.30 0.31 0.83 0.42 0.69 0.88 1.47 1.38 1.09 1.05 1.08 1.19 0.79 0.65 0.55 0.64 0.70 0.93 1.05 1.16 0.79 0.64 0.91 0.97 0.78 0.98 0.76 1.12 1.22 1.07 0.72 0.77 0.60 0.54 0.59 0.49 0.52 0.31 0.31 0.33 0.21 0.19 0.12 0.19 0.18 0.26 0.13 0.20 0.08 0.01 0.03 0.01 0.02 0.03 0.03
0.00 0.00 0.00 0.00 0.00 0.00 0.00 0.00 0.00 0.00 0.00 0.00 0.00 0.00 0.00 0.00 0.00 0.00 0.01 0.02 0.23 0.04 0.01 0.02 0.42 0.80 0.16 0.27 0.12 0.24 0.30 0.25 0.50 0.55 0.56 0.63 0.67 0.64 0.58 0.72 0.87 0.48 0.38 0.59 0.38 0.34 1.70 0.88 0.93 1.19 1.64 0.67 0.89 1.09 0.75 0.70 0.63 1.00 0.89 0.72 0.62 0.95 0.45 0.54 0.93 0.99 0.86 0.85 0.71 1.23 1.24 0.72 0.53 0.49 0.52 0.49 0.92 1.31 0.84 0.60 0.30 0.60 0.36 0.49 0.22 0.29 0.44 0.43 0.31 0.11 0.07 0.05 0.04 0.02 0.02 0.02 0.02
0.00 0.00 0.00 0.00 0.00 0.00 0.00 0.00 0.00 0.00 0.00 0.00 0.00 0.00 0.00 0.00 0.00 0.00 0.00 0.02 0.03 0.00 0.00 0.00 0.07 0.40 0.22 0.21 0.13 0.20 0.54 0.50 0.33 0.54 0.59 0.51 0.68 0.61 0.68 0.77 0.36 0.36 0.42 1.18 0.59 0.68 1.17 1.60 0.71 1.12 0.41 0.60 0.82 0.46 0.69 0.78 0.79 0.87 1.12 0.97 0.58 0.69 0.75 0.92 1.33 1.12 0.90 0.56 0.98 1.03 1.20 0.80 0.60 0.68 0.68 0.75 0.57 0.50 0.43 0.39 0.49 0.33 0.74 0.79 0.40 0.24 0.33 0.27 0.33 0.38 0.33 0.11 0.09 0.07 0.03 0.02 0.02
0.00 0.00 0.00 0.00 0.00 0.00 0.00 0.00 0.00 0.00 0.00 0.00 0.00 0.00 0.00 0.00 0.00 0.00 0.00 0.00 0.00 0.01 0.01 0.04 0.14 0.30 0.17 0.14 0.34 0.23 0.22 0.23 0.62 0.46 0.80 0.81 0.73 0.49 0.74 0.80 0.68 0.56 0.73 0.61 0.77 0.70 1.25 1.21 0.72 0.40 0.65 0.61 0.46 0.40 0.60 0.65 0.66 0.87 0.90 0.97 1.03 1.11 0.89 0.85 1.69 1.07 0.67 0.82 0.91 0.87 1.50 1.20 1.07 0.83 0.98 0.83 0.61 0.76 0.63 0.44 0.55 0.57 0.73 1.14 0.70 0.31 0.47 0.54 0.33 0.22 0.29 0.33 0.08 0.03 0.07 0.22 0.13
0.00 0.00 0.00 0.00 0.00 0.00 0.00 0.00 0.00 0.00 0.00 0.00 0.00 0.00 0.00 0.00 0.00 0.00 0.00 0.00 0.00 0.00 0.01 0.03 0.11 0.24 0.09 0.07 0.21 0.19 0.16 0.29 0.58 0.67 0.64 2.01 1.06 1.15 1.21 1.49 0.98 1.12 0.95 0.72 0.90 1.07 1.92 1.25 1.35 0.79 0.65 0.36 0.36 0.44 0.32 0.34 0.89 1.21 0.91 0.64 0.85 1.23 0.89 1.18 1.42 0.93 0.84 0.60 0.59 0.57 0.82 0.72 0.60 0.66 0.80 0.45 0.57 0.82 0.88 0.83 0.45 0.50 0.69 0.52 0.93 0.58 0.49 0.34 0.20 0.21 0.26 0.11 0.09 0.14 0.32 0.28 0.21
0.00 0.00 0.00 0.00 0.00 0.00 0.00 0.00 0.00 0.00 0.00 0.00 0.00 0.00 0.00 0.00 0.00 0.00 0.00 0.00 0.00 0.00 0.01 0.03 0.17 0.12 0.13 0.13 0.11 0.32 0.28 0.57 0.74 0.83 1.47 2.19 1.99 2.17 1.80 1.30 1.72 1.61 1.67 1.47 1.57 1.82 1.27 1.33 0.48 0.56 0.36 0.26 0.28 0.50 0.67 0.63 0.72 1.00 0.63 0.51 0.84 0.90 0.88 1.18 0.62 0.87 0.58 0.91 0.52 0.44 0.75 0.42 0.47 0.55 0.64 0.56 0.33 0.60 0.80 0.69 0.83 0.60 0.49 0.61 0.76 0.68 0.59 0.28 0.22 0.22 0.38 0.15 0.08 0.49 0.32 0.20 0.08
0.00 0.00 0.00 0.00 0.00 0.00 0.00 0.00 0.00 0.00 0.00 0.00 0.00 0.00 0.00 0.00 0.00 0.00 0.00 0.00 0.00 0.00 0.03 0.11 0.17 0.13 0.05 0.21 0.21 0.36 0.29 0.54 0.84 1.15 1.55 2.06 2.43 1.73 1.59 1.21 1.38 1.50 1.53 1.77 1.30 0.82 0.59 0.63 0.49 0.91 0.46 0.85 0.83 0.38 0.46 0.58 0.48 0.30 0.74 0.64 0.84 0.61 0.44 0.77 1.09 1.43 0.59 0.54 0.75 0.60 0.45 0.56 0.73 0.96 0.73 0.59 0.77 0.79 1.39 0.90 0.92 1.06 1.07 0.69 0.85 0.65 0.62 0.40 0.35 0.27 0.17 0.28 0.43 0.43 0.52 0.40 0.34
0.00 0.00 0.00 0.00 0.00 0.00 0.00 0.00 0.00 0.00 0.00 0.00 0.00 0.00 0.00 0.00 0.00 0.00 0.00 0.00 0.00 0.00 0.03 0.04 0.06 0.15 0.16 0.23 0.28 0.24 0.33 0.84 1.98 2.17 2.81 3.14 3.60 2.41 2.46 2.14 1.89 0.92 2.14 2.59 0.93 0.82 0.51 0.48 0.56 0.57 0.54 0.65 0.73 0.61 0.49 0.47 0.42 0.72 0.79 0.85 0.77 0.64 0.47 0.57 1.03 0.69 0.51 0.46 0.47 0.30 0.38 0.74 0.53 1.00 0.67 0.72 1.30 0.91 1.60 1.46 1.52 1.34 0.69 0.88 0.71 0.58 0.35 0.48 0.47 0.29 0.35 0.60 0.71 0.73 0.64 0.61 0.46
0.00 0.00 0.00 0.00 0.00 0.00 0.00 0.00 0.00 0.00 0.00 0.00 0.00 0.00 0.00 0.00 0.00 0.00 0.00 0.00 0.00 0.00 0.03 0.04 0.07 0.08 0.12 0.11 0.15 0.14 0.41 0.97 0.62 1.69 1.69 2.13 3.54 3.35 3.55 2.81 3.17 3.52 1.95 1.32 1.20 0.61 0.59 0.35 0.27 0.23 0.37 0.42 0.38 0.47 0.40 0.37 0.21 0.27 0.28 0.57 0.39 0.20 0.33 0.47 0.74 0.65 0.86 0.59 0.65 0.65 0.50 0.63 0.66 0.90 0.85 0.85 0.56 0.49 1.05 1.35 1.67 1.79 1.26 0.73 0.51 0.24 0.28 0.39 0.39 0.28 0.53 0.59 0.51 0.54 0.62 0.53 0.20
0.00 0.00 0.00 0.00 0.00 0.00 0.00 0.00 0.00 0.00 0.00 0.00 0.00 0.00 0.00 0.00 0.00 0.00 0.01 0.00 0.01 0.01 0.02 0.02 0.06 0.07 0.08 0.11 0.15 0.22 0.28 0.62 1.35 1.08 1.40 1.86 1.78 1.88 2.46 1.69 2.20 1.22 0.88 0.84 1.23 0.75 0.37 0.20 0.35 0.44 0.44 0.30 0.45 0.69 0.30 0.59 0.18 0.19 0.19 0.40 0.30 0.34 0.56 0.26 0.76 0.99 0.35 0.61 0.41 0.43 0.41 0.81 0.88 1.02 0.58 1.05 1.40 0.90 1.06 1.11 1.30 1.13 1.27 0.96 0.97 0.40 0.31 0.21 0.54 0.65 0.76 0.71 0.47 0.39 0.43 0.32 0.19
0.00 0.00 0.00 0.00 0.00 0.00 0.00 0.00 0.00 0.00 0.00 0.00 0.00 0.00 0.00 0.00 0.00 0.00 0.01 0.00 0.00 0.01 0.03 0.09 0.20 0.14 0.06 0.09 0.11 0.15 0.25 0.54 1.07 0.94 0.95 1.05 1.29 1.78 1.28 1.55 1.64 0.58 0.53 0.76 0.80 0.83 0.39 0.59 0.64 0.83 0.68 0.47 0.41 0.43 0.38 0.33 0.28 0.30 0.23 0.17 0.33 0.19 0.28 0.45 0.33 0.37 0.50 0.58 0.77 0.44 0.54 1.04 0.72 1.08 0.58 0.80 1.01 1.06 0.67 0.59 0.88 1.49 1.43 0.94 1.11 0.87 0.75 0.78 0.42 0.64 0.68 0.74 0.42 0.39 0.44 0.47 0.26
0.00 0.00 0.00 0.00 0.00 0.00 0.00 0.00 0.00 0.00 0.00 0.00 0.00 0.00 0.00 0.00 0.00 0.00 0.01 0.01 0.00 0.00 0.10 0.14 0.40 0.46 0.30 0.20 0.19 0.37 0.59 0.98 1.51 1.09 0.96 0.66 0.73 1.41 0.75 1.37 1.14 0.45 0.87 0.71 0.72 0.82 0.80 0.58 0.64 0.72 1.44 1.06 1.13 0.99 0.74 0.43 0.18 0.16 0.28 0.36 0.29 0.21 0.62 0.19 0.20 0.30 0.27 0.72 0.49 0.42 0.46 0.58 0.79 0.82 0.77 0.79 1.06 1.08 0.92 0.99 0.89 1.09 0.96 0.83 0.73 0.94 0.76 0.43 0.74 1.18 0.67 0.55 0.49 0.28 0.35 0.31 0.39
0.00 0.00 0.00 0.00 0.00 0.00 0.00 0.00 0.00 0.00 0.00 0.00 0.00 0.00 0.00 0.00 0.00 0.00 0.01 0.01 0.01 0.00 0.05 0.18 0.14 0.11 0.24 0.28 0.41 0.35 0.33 0.49 0.51 0.39 0.35 0.50 0.52 0.75 1.63 0.97 0.62 0.86 0.56 0.62 0.52 0.47 0.96 0.73 0.59 0.92 1.07 0.81 1.42 1.25 0.90 0.56 0.51 0.22 0.22 0.38 0.16 0.29 0.18 0.13 0.54 0.41 0.23 0.36 0.37 0.32 0.49 0.46 0.74 0.69 0.90 0.73 0.94 1.23 0.97 1.27 1.46 0.97 1.12 0.76 0.65 0.81 0.98 0.81 0.92 0.38 0.75 0.62 0.73 0.83 0.52 0.57 0.49
0.00 0.00 0.00 0.01 0.00 0.00 0.00 0.00 0.00 0.00 0.00 0.00 0.00 0.00 0.00 0.00 0.00 0.00 0.02 0.01 0.01 0.01 0.05 0.06 0.06 0.07 0.09 0.08 0.08 0.30 0.43 0.44 0.27 0.15 0.15 0.33 0.57 0.36 0.30 0.61 0.64 0.69 0.66 0.51 0.38 0.86 1.24 1.37 1.23 1.33 1.36 0.95 1.15 1.16 0.96 0.97 0.39 0.23 0.21 0.16 0.11 0.41 0.20 0.31 0.13 0.23 0.79 0.26 0.31 0.25 0.33 0.44 0.34 0.56 0.71 0.65 1.58 0.73 1.75 1.17 1.20 0.81 0.99 1.06 1.39 0.96 0.74 1.20 2.19 1.26 0.64 0.64 0.69 0.98 0.95 0.81 0.75
0.00 0.00 0.00 0.00 0.00 0.00 0.00 0.00 0.00 0.00 0.00 0.00 0.00 0.00 0.00 0.00 0.00 0.00 0.00 0.01 0.02 0.01 0.03 0.04 0.09 0.09 0.15 0.09 0.06 0.11 0.15 0.10 0.09 0.06 0.20 0.27 0.29 0.26 0.16 0.13 0.18 0.51 0.43 0.31 0.59 1.66 1.43 1.06 1.55 2.27 1.38 1.46 1.03 0.72 0.69 0.89 0.58 0.18 0.21 0.15 0.26 0.22 0.14 0.43 0.20 0.60 0.35 0.61 0.31 0.44 0.34 0.27 0.17 0.37 0.37 0.43 0.66 0.72 0.78 0.63 1.11 0.90 0.86 0.95 1.29 1.29 0.93 0.94 1.23 0.84 1.37 1.07 0.72 1.35 1.90 1.31 1.35
0.00 0.00 0.00 0.00 0.01 0.00 0.00 0.00 0.00 0.00 0.00 0.00 0.00 0.00 0.00 0.00 0.00 0.00 0.01 0.02 0.01 0.01 0.02 0.05 0.09 0.08 0.07 0.07 0.04 0.15 0.14 0.22 0.11 0.15 0.17 0.33 0.22 0.16 0.07 0.05 0.13 0.48 0.47 0.58 1.82 1.82 1.34 1.50 1.94 2.50 2.07 1.56 1.04 1.27 0.87 0.51 0.60 0.21 0.21 0.34 0.30 0.47 0.45 0.30 0.36 0.36 0.28 0.36 0.36 0.35 0.12 0.40 0.21 0.19 0.26 0.28 0.41 0.30 0.48 0.32 0.43 0.72 1.18 0.97 1.64 1.20 0.86 1.20 1.68 0.85 1.10 0.68 1.53 1.06 1.39 0.87 1.23
0.00 0.00 0.00 0.00 0.00 0.00 0.00 0.00 0.00 0.00 0.00 0.00 0.00 0.00 0.00 0.00 0.00 0.00 0.00 0.01 0.02 0.02 0.02 0.03 0.13 0.05 0.03 0.07 0.11 0.07 0.08 0.15 0.16 0.10 0.30 0.29 0.19 0.07 0.11 0.08 0.45 0.33 0.63 1.16 2.32 3.11 2.57 2.54 2.23 1.93 1.73 1.10 1.74 1.09 0.61 0.85 0.22 0.12 0.26 0.23 0.16 0.31 0.29 0.36 0.14 0.28 0.29 0.33 0.38 0.22 0.13 0.24 0.08 0.19 0.14 0.32 0.34 0.38 0.36 0.33 0.53 0.36 0.38 1.09 0.47 0.45 0.45 1.01 1.13 1.75 1.15 0.87 1.18 1.58 1.85 0.88 0.96
0.00 0.00 0.00 0.00 0.00 0.00 0.00 0.00 0.00 0.00 0.00 0.00 0.00 0.00 0.00 0.00 0.00 0.00 0.00 0.01 0.02 0.01 0.01 0.02 0.03 0.04 0.07 0.12 0.11 0.09 0.13 0.26 0.10 0.13 0.27 0.13 0.10 0.13 0.11 0.61 0.37 0.47 1.23 2.07 1.02 1.39 1.41 2.87 2.40 1.42 1.46 1.93 2.13 1.30 0.95 0.44 0.17 0.26 0.17 0.27 0.30 0.42 0.28 0.19 0.13 0.30 0.45 0.33 0.38 0.48 0.19 0.15 0.33 0.31 0.17 0.30 0.19 0.31 0.28 0.29 0.28 0.48 0.28 0.59 0.30 0.61 0.32 0.47 1.40 1.85 1.08 1.48 0.81 0.56 1.28 1.36 1.29
0.00 0.00 0.00 0.00 0.01 0.00 0.00 0.00 0.00 0.00 0.00 0.00 0.00 0.00 0.00 0.00 0.00 0.00 0.00 0.00 0.01 0.01 0.00 0.01 0.01 0.01 0.02 0.11 0.59 0.39 0.29 0.18 0.13 0.23 0.27 0.35 0.12 0.20 0.24 0.26 0.32 0.61 1.47 0.97 0.87 1.01 1.42 1.93 1.33 2.05 3.29 3.19 2.66 2.02 1.58 0.49 0.62 0.65 0.59 0.28 0.45 0.30 0.23 0.60 0.12 0.28 0.31 0.24 0.30 0.26 0.35 0.18 0.27 0.27 0.26 0.34 0.28 0.25 0.14 0.20 0.19 0.20 0.15 0.22 0.48 0.31 0.13 0.21 0.58 1.07 0.57 0.78 1.03 0.85 0.95 1.47 1.31
0.00 0.00 0.00 0.00 0.00 0.00 0.03 0.00 0.00 0.00 0.00 0.00 0.00 0.00 0.01 0.00 0.00 0.00 0.00 0.01 0.00 0.01 0.00 0.00 0.00 0.00 0.01 0.02 0.09 0.12 0.12 0.13 0.14 0.22 0.17 0.14 0.14 0.13 0.12 0.40 0.59 0.73 0.78 1.20 0.83 1.67 1.67 2.48 2.91 3.73 3.26 2.65 1.53 1.17 1.13 0.93 0.43 0.58 0.56 0.71 0.30 0.55 0.66 0.15 0.52 0.58 0.20 0.22 0.12 0.15 0.28 0.32 0.18 0.10 0.24 0.06 0.06 0.08 0.08 0.11 0.09 0.13 0.15 0.13 0.21 0.29 0.26 1.16 0.90 0.99 0.88 1.50 0.86 1.08 0.60 0.92 0.66
0.00 0.00 0.00 0.00 0.00 0.00 0.00 0.06 0.00 0.00 0.00 0.00 0.00 0.00 0.00 0.00 0.00 0.00 0.00 0.00 0.01 0.00 0.01 0.01 0.01 0.01 0.02 0.05 0.10 0.05 0.16 0.12 0.25 0.14 0.21 0.19 0.16 0.14 0.56 0.39 0.64 0.70 0.87 0.97 0.98 1.31 1.17 1.94 2.01 1.57 1.11 1.22 1.33 1.36 1.41 1.20 0.75 0.56 0.45 0.42 0.50 0.47 0.43 0.48 0.26 0.14 0.18 0.18 0.14 0.05 0.07 0.04 0.03 0.02 0.03 0.02 0.02 0.04 0.04 0.05 0.07 0.08 0.13 0.11 0.16 0.15 0.17 0.11 0.14 0.39 0.45 0.42 0.54 0.50 0.81 0.74 0.87
0.00 0.00 0.00 0.00 0.00 0.00 0.00 0.00 0.00 0.00 0.02 0.00 0.00 0.02 0.01 0.01 0.00 0.00 0.00 0.00 0.00 0.00 0.01 0.01 0.00 0.01 0.01 0.04 0.08 0.07 0.16 0.18 0.28 0.21 0.17 0.12 0.16 0.33 0.36 0.44 0.67 0.57 0.69 1.08 1.27 1.26 2.00 1.69 0.80 0.75 1.23 1.14 1.33 1.24 0.76 0.66 0.54 0.31 0.40 0.16 0.46 0.33 0.18 0.35 0.23 0.21 0.22 0.07 0.05 0.02 0.01 0.02 0.01 0.01 0.01 0.02 0.02 0.02 0.02 0.03 0.06 0.07 0.06 0.08 0.13 0.10 0.11 0.13 0.07 0.10 0.26 0.47 0.53 0.51 0.82 0.68 0.68
0.00 0.03 0.00 0.00 0.00 0.00 0.00 0.00 0.00 0.00 0.02 0.04 0.00 0.01 0.03 0.00 0.00 0.00 0.00 0.00 0.00 0.00 0.00 0.00 0.00 0.01 0.01 0.07 0.06 0.04 0.12 0.16 0.24 0.31 0.13 0.16 0.41 0.89 0.62 0.46 0.75 0.96 0.98 0.97 1.15 1.14 1.00 1.13 1.11 1.02 0.98 1.06 1.32 1.29 0.57 0.39 0.51 0.66 0.63 0.36 0.17 0.20 0.24 0.13 0.14 0.21 0.08 0.02 0.04 0.01 0.01 0.01 0.00 0.01 0.01 0.01 0.02 0.02 0.03 0.03 0.04 0.05 0.08 0.09 0.04 0.15 0.05 0.06 0.10 0.06 0.10 0.11 0.14 0.21 0.22 0.77 0.69
0.02 0.01 0.00 0.00 0.01 0.00 0.00 0.00 0.00 0.01 0.00 0.01 0.00 0.00 0.02 0.02 0.06 0.00 0.00 0.00 0.00 0.00 0.00 0.01 0.01 0.02 0.01 0.07 0.07 0.05 0.09 0.18 0.20 0.09 0.15 1.10 1.80 1.35 0.93 0.70 0.76 0.96 1.10 1.47 1.12 1.00 1.73 2.11 1.96 1.61 1.20 0.63 0.94 0.65 0.67 0.63 0.72 0.56 0.86 0.43 0.57 0.60 0.18 0.28 0.22 0.08 0.22 0.11 0.06 0.03 0.01 0.00 0.00 0.00 0.01 0.01 0.01 0.02 0.02 0.02 0.04 0.03 0.04 0.05 0.09 0.08 0.05 0.04 0.04 0.05 0.04 0.03 0.05 0.08 0.15 0.34 0.31
0.01 0.00 0.00 0.00 0.00 0.02 0.00 0.00 0.01 0.05 0.01 0.03 0.00 0.00 0.00 0.02 0.03 0.00 0.00 0.00 0.00 0.02 0.00 0.01 0.01 0.02 0.17 0.14 0.05 0.04 0.06 0.06 0.12 0.10 1.07 0.84 1.43 1.05 0.70 1.28 1.31 1.20 1.54 0.74 1.34 2.01 2.55 1.44 2.26 1.87 2.18 3.16 2.04 0.61 0.66 0.78 0.46 0.53 0.79 0.68 0.47 0.37 0.16 0.09 0.11 0.07 0.06 0.04 0.01 0.01 0.00 0.00 0.00 0.00 0.00 0.00 0.01 0.01 0.01 0.02 0.02 0.04 0.05 0.02 0.03 0.08 0.04 0.05 0.04 0.05 0.11 0.08 0.07 0.05 0.04 0.10 0.10
0.00 0.00 0.00 0.00 0.00 0.00 0.00 0.02 0.00 0.08 0.00 0.02 0.04 0.09 0.02 0.04 0.01 0.03 0.01 0.01 0.05 0.07 0.03 0.01 0.02 0.03 0.08 0.03 0.04 0.05 0.08 0.19 0.25 0.17 0.14 0.77 0.85 1.02 1.67 2.07 2.48 2.00 1.61 1.98 2.73 2.37 1.90 1.35 1.44 2.52 2.30 2.57 2.01 1.30 1.47 0.72 0.69 0.68 0.55 0.81 0.26 0.69 0.25 0.18 0.20 0.12 0.02 0.01 0.00 0.00 0.00 0.00 0.00 0.00 0.00 0.00 0.00 0.00 0.00 0.00 0.01 0.02 0.04 0.05 0.01 0.05 0.04 0.02 0.04 0.05 0.05 0.05 0.03 0.07 0.03 0.04 0.06
0.00 0.00 0.00 0.00 0.00 0.03 0.01 0.00 0.05 0.05 0.02 0.03 0.03 0.02 0.01 0.05 0.06 0.03 0.03 0.05 0.01 0.02 0.03 0.05 0.03 0.04 0.08 0.05 0.05 0.08 0.14 0.24 0.80 0.60 0.60 0.81 0.78 1.06 1.67 1.73 1.72 2.52 3.38 3.76 3.13 2.71 3.24 3.71 2.04 1.95 1.33 1.41 1.69 1.34 0.90 1.44 0.78 0.23 0.34 0.28 0.09 0.19 0.19 0.12 0.04 0.01 0.01 0.00 0.00 0.00 0.00 0.00 0.00 0.00 0.00 0.00 0.00 0.00 0.00 0.00 0.01 0.03 0.03 0.02 0.03 0.06 0.03 0.08 0.03 0.03 0.02 0.03 0.03 0.04 0.03 0.03 0.03
0.00 0.00 0.02 0.00 0.02 0.00 0.01 0.05 0.04 0.09 0.01 0.03 0.02 0.01 0.02 0.05 0.08 0.06 0.04 0.01 0.00 0.01 0.07 0.05 0.07 0.08 0.04 0.07 0.08 0.05 0.14 0.38 0.58 0.69 0.63 0.74 1.13 0.84 0.77 1.67 1.41 2.11 2.47 2.55 1.68 1.48 1.51 1.40 1.41 2.11 1.77 2.41 2.44 1.64 1.33 0.73 0.42 0.54 0.51 0.39 0.19 0.14 0.14 0.14 0.04 0.02 0.01 0.00 0.00 0.00 0.00 0.00 0.01 0.00 0.00 0.00 0.00 0.00 0.00 0.01 0.00 0.00 0.01 0.02 0.02 0.03 0.04 0.07 0.02 0.03 0.02 0.03 0.03 0.02 0.03 0.04 0.10
0.00 0.00 0.02 0.21 0.19 0.02 0.09 0.05 0.03 0.00 0.03 0.08 0.00 0.01 0.02 0.00 0.08 0.10 0.06 0.02 0.00 0.02 0.04 0.03 0.02 0.02 0.01 0.03 0.06 0.08 0.07 0.13 0.44 0.47 0.26 0.31 0.96 0.82 0.57 1.27 1.79 1.81 2.83 2.81 2.15 1.57 1.20 0.91 1.21 0.57 1.36 2.07 1.08 0.84 1.25 1.25 0.55 0.24 0.33 0.34 0.30 0.26 0.05 0.02 0.03 0.01 0.00 0.00 0.00 0.00 0.00 0.00 0.00 0.00 0.00 0.00 0.00 0.00 0.00 0.00 0.00 0.00 0.00 0.01 0.01 0.02 0.01 0.07 0.04 0.05 0.03 0.02 0.03 0.02 0.02 0.02 0.03
0.00 0.03 0.08 0.08 0.17 0.07 0.02 0.07 0.02 0.06 0.02 0.01 0.05 0.02 0.03 0.10 0.11 0.08 0.16 0.05 0.03 0.03 0.03 0.03 0.04 0.05 0.02 0.03 0.04 0.08 0.13 0.19 0.30 0.82 1.13 0.52 0.55 0.94 0.98 0.74 0.86 0.98 1.44 1.47 1.76 1.03 0.92 1.54 1.70 1.74 1.35 1.35 1.15 1.49 1.07 0.79 0.47 0.17 0.25 0.44 0.25 0.27 0.07 0.02 0.02 0.00 0.00 0.01 0.00 0.00 0.00 0.00 0.00 0.00 0.00 0.00 0.00 0.00 0.00 0.00 0.00 0.00 0.00 0.00 0.00 0.01 0.02 0.05 0.03 0.09 0.03 0.03 0.05 0.01 0.02 0.02 0.03
0.01 0.00 0.00 0.08 0.11 0.07 0.02 0.05 0.05 0.03 0.18 0.07 0.04 0.00 0.03 0.01 0.30 0.07 0.17 0.07 0.05 0.03 0.03 0.04 0.07 0.08 0.11 0.09 0.11 0.48 0.88 1.45 1.10 0.51 0.23 0.41 0.84 0.46 0.44 0.51 0.48 0.55 1.58 2.52 1.22 0.93 1.32 1.69 2.04 1.65 1.31 1.38 1.41 1.16 1.10 0.67 0.53 0.39 0.63 0.51 0.43 0.09 0.04 0.02 0.01 0.00 0.00 0.00 0.00 0.00 0.00 0.00 0.00 0.00 0.00 0.00 0.00 0.00 0.00 0.00 0.00 0.00 0.00 0.00 0.00 0.01 0.01 0.01 0.01 0.01 0.05 0.03 0.02 0.02 0.05 0.01 0.03
0.01 0.00 0.00 0.03 0.02 0.00 0.10 0.24 0.03 0.12 0.05 0.05 0.04 0.01 0.17 0.35 0.35 0.16 0.05 0.03 0.03 0.03 0.05 0.15 0.08 0.09 0.14 0.12 0.30 0.23 0.20 0.42 1.19 1.05 0.96 1.15 1.14 0.72 0.62 0.46 0.55 0.82 1.83 2.19 1.71 1.46 1.15 1.52 1.26 1.98 2.98 2.12 1.62 1.48 1.40 0.81 0.65 0.68 0.57 0.69 0.38 0.10 0.04 0.02 0.02 0.00 0.00 0.00 0.00 0.00 0.00 0.00 0.00 0.00 0.00 0.00 0.00 0.00 0.00 0.00 0.00 0.00 0.00 0.00 0.00 0.00 0.00 0.01 0.01 0.01 0.04 0.02 0.04 0.03 0.03 0.02 0.01
0.18 0.00 0.05 0.02 0.01 0.02 0.04 0.00 0.00 0.00 0.00 0.01 0.00 0.02 0.05 0.01 0.16 0.05 0.20 0.09 0.07 0.05 0.08 0.09 0.19 0.12 0.24 0.28 0.26 0.45 0.84 1.12 1.11 1.18 0.66 1.06 1.02 0.61 0.29 0.30 0.36 1.43 1.75 1.98 1.74 1.19 1.46 1.02 0.75 1.22 2.15 1.03 1.59 1.24 0.75 0.39 0.30 0.31 0.33 0.23 0.10 0.13 0.07 0.03 0.01 0.00 0.00 0.00 0.00 0.00 0.01 0.00 0.00 0.00 0.00 0.00 0.00 0.00 0.00 0.00 0.00 0.00 0.00 0.00 0.00 0.00 0.00 0.00 0.00 0.00 0.01 0.01 0.01 0.05 0.04 0.05 0.01
0.00 0.02 0.03 0.00 0.00 0.02 0.02 0.12 0.03 0.00 0.02 0.02 0.01 0.03 0.29 0.01 0.41 0.11 0.05 0.14 0.11 0.15 0.22 0.11 0.34 0.54 0.55 0.49 0.53 0.72 1.16 0.88 0.85 0.84 0.70 0.54 0.55 0.44 0.59 0.50 0.43 0.49 0.85 1.48 0.76 0.71 1.16 0.58 0.86 2.63 2.23 1.71 1.10 0.64 0.58 0.78 0.26 0.13 0.11 0.09 0.08 0.07 0.08 0.03 0.02 0.00 0.02 0.04 0.05 0.06 0.01 0.03 0.00 0.00 0.00 0.00 0.00 0.00 0.00 0.00 0.00 0.00 0.00 0.00 0.00 0.00 0.00 0.00 0.00 0.00 0.00 0.00 0.00 0.00 0.01 0.01 0.02
0.00 0.07 0.00 0.02 0.06 0.05 0.03 0.00 0.03 0.02 0.01 0.06 0.00 0.02 0.06 0.14 0.36 0.06 0.24 0.15 0.15 0.18 0.22 0.25 0.18 0.25 0.38 0.74 0.87 0.98 1.73 1.46 1.17 0.98 0.76 0.72 0.63 0.91 0.94 0.87 0.59 0.89 0.84 0.65 0.73 0.42 0.27 0.43 2.33 2.70 2.67 1.22 1.31 0.67 0.25 0.59 0.25 0.17 0.13 0.10 0.10 0.07 0.04 0.06 0.04 0.03 0.01 0.04 0.04 0.04 0.04 0.01 0.00 0.00 0.00 0.00 0.00 0.00 0.00 0.00 0.00 0.00 0.00 0.00 0.00 0.00 0.00 0.00 0.00 0.00 0.00 0.00 0.00 0.00 0.00 0.00 0.01
0.00 0.00 0.00 0.00 0.00 0.05 0.08 0.02 0.09 0.01 0.14 0.01 0.01 0.04 0.24 0.15 0.38 0.19 0.24 0.14 0.26 0.22 0.29 0.29 0.33 0.32 0.52 1.18 0.85 0.80 1.19 1.33 1.06 0.67 1.01 0.85 1.34 1.22 1.01 0.66 1.09 1.30 0.65 0.73 0.59 0.35 0.53 0.63 1.20 1.37 0.59 0.85 0.56 0.71 0.68 0.59 0.41 0.55 0.15 0.06 0.02 0.03 0.03 0.04 0.04 0.01 0.01 0.00 0.02 0.00 0.00 0.00 0.00 0.00 0.00 0.00 0.00 0.00 0.00 0.00 0.00 0.00 0.00 0.00 0.00 0.00 0.00 0.00 0.00 0.00 0.00 0.00 0.00 0.00 0.00 0.00 0.00
0.00 0.00 0.00 0.01 0.01 0.03 0.01 0.10 0.02 0.16 0.13 0.06 0.09 0.10 0.44 0.36 0.10 0.11 0.18 0.19 0.33 0.53 0.62 0.72 0.65 0.74 0.85 1.04 1.38 1.25 1.36 1.20 1.02 0.53 0.77 0.80 0.40 0.44 0.58 0.60 1.12 0.84 0.94 1.14 1.17 0.60 0.44 0.48 0.70 0.68 0.33 0.32 0.61 0.65 0.77 0.67 0.57 0.55 0.10 0.03 0.03 0.03 0.02 0.02 0.01 0.06 0.04 0.01 0.02 0.00 0.00 0.00 0.00 0.00 0.00 0.00 0.00 0.00 0.00 0.00 0.00 0.00 0.00 0.00 0.00 0.00 0.00 0.00 0.00 0.00 0.00 0.00 0.00 0.00 0.00 0.00 0.00
0.00 0.01 0.05 0.05 0.09 0.12 0.10 0.10 0.00 0.08 0.04 0.10 0.05 0.17 0.36 0.20 0.09 0.14 0.24 0.36 0.46 0.51 0.59 0.77 0.96 1.10 0.95 1.44 1.32 1.40 1.56 1.13 0.90 0.71 0.58 0.92 0.75 0.49 1.01 0.84 0.60 0.66 0.85 1.60 1.07 1.18 1.42 0.52 1.05 0.42 0.52 0.43 0.35 0.38 0.29 0.27 0.77 0.65 0.40 0.68 0.33 0.18 0.02 0.06 0.02 0.08 0.10 0.03 0.01 0.03 0.02 0.02 0.00 0.00 0.01 0.00 0.00 0.00 0.00 0.00 0.00 0.00 0.00 0.00 0.00 0.00 0.00 0.00 0.00 0.00 0.00 0.00 0.00 0.00 0.00 0.00 0.00